Weather History for Keahole Point, HI

Change the Weather History Date:

Saturday, December 21, 2013

  Actual Average Record
Temperature  
Mean Temperature 76 °F -  
Max Temperature 82 °F 79 °F 88 °F (1988)
Min Temperature 71 °F 68 °F 62 °F (1982)
Cooling Degree Days 12    
Growing Degree Days 26 (Base 50)    
Moisture  
Dew Point 66 °F    
Average Humidity 70    
Maximum Humidity 83    
Minimum Humidity 58    
Precipitation  
Precipitation 0.00 in - - ()
Sea Level Pressure  
Sea Level Pressure 29.97 in    
Wind  
Wind Speed 7 mph (SSE)    
Max Wind Speed 12 mph    
Max Gust Speed -    
Visibility 10 miles    
Events      
Averages and records for this station are not official NWS values.
T = Trace of Precipitation, MM = Missing Value Source: NWS Daily Summary

Daily Weather History Graph

Daily Weather History Graph

Search for Another Location

Airport:

Trip Planner

Search our weather history database for the weather conditions in past years. The results will help you decide how hot, cold, wet, or windy it might be!

Date:

Astronomy

Dec. 21, 2013 Rise Set
Actual Time 6:54 AM HST 5:50 PM HST
Civil Twilight 6:30 AM HST 6:14 PM HST
Nautical Twilight 6:02 AM HST 6:42 PM HST
Astronomical Twilight 5:35 AM HST 7:09 PM HST
Moon 9:46 PM HST 9:53 AM HST
Length of Visible Light 11h 44m
Length of Day
10h 56m
Waning Gibbous, 83% of the Moon is Illuminated
Dec 21
Waning Gibbous
Dec 25
Last Quarter
Jan 1
New
Jan 7
First Quarter
Jan 15
Full

Hourly Weather History & Observations

Time (HST) Temp. Heat Index Dew Point Humidity Pressure Visibility Wind Dir Wind Speed Gust Speed Precip Events Conditions
12:53 AM 75.0 °F - 61.0 °F 62% 29.98 in 10.0 mi ESE 10.4 mph - N/A   Clear
1:53 AM 75.9 °F - 61.0 °F 60% 29.98 in 10.0 mi ESE 8.1 mph - N/A   Overcast
2:53 AM 75.0 °F - 61.0 °F 62% 29.97 in 10.0 mi ESE 6.9 mph - N/A   Clear
3:53 AM 73.0 °F - 61.0 °F 66% 29.96 in 10.0 mi East 3.5 mph - N/A   Clear
4:53 AM 71.1 °F - 60.1 °F 68% 29.97 in 10.0 mi ENE 4.6 mph - N/A   Clear
5:53 AM 71.1 °F - 60.1 °F 68% 29.98 in 10.0 mi East 5.8 mph - N/A   Clear
6:53 AM 71.1 °F - 61.0 °F 70% 29.98 in 10.0 mi East 3.5 mph - N/A   Clear
7:53 AM 73.0 °F - 62.1 °F 68% 29.99 in 10.0 mi Calm Calm - N/A   Clear
8:53 AM 79.0 °F - 63.0 °F 58% 30.00 in 10.0 mi South 4.6 mph - N/A   Clear
9:53 AM 80.1 °F 82.1 °F 66.0 °F 62% 29.99 in 10.0 mi South 11.5 mph - N/A   Clear
10:53 AM 81.0 °F 83.8 °F 68.0 °F 65% 29.97 in 10.0 mi SSW 9.2 mph - N/A   Clear
11:53 AM 81.0 °F 84.1 °F 69.1 °F 67% 29.96 in 10.0 mi SW 10.4 mph - N/A   Clear
12:53 PM 81.0 °F 83.8 °F 68.0 °F 65% 29.94 in 10.0 mi West 10.4 mph - N/A   Clear
1:53 PM 82.0 °F 84.9 °F 68.0 °F 62% 29.93 in 10.0 mi West 9.2 mph - N/A   Mostly Cloudy
2:53 PM 81.0 °F 83.8 °F 68.0 °F 65% 29.93 in 10.0 mi WSW 9.2 mph - N/A   Partly Cloudy
3:53 PM 80.1 °F 82.9 °F 69.1 °F 69% 29.93 in 10.0 mi SW 8.1 mph - N/A   Clear
4:53 PM 79.0 °F - 70.0 °F 74% 29.94 in 10.0 mi SW 5.8 mph - N/A   Clear
5:53 PM 78.1 °F - 69.1 °F 74% 29.94 in 10.0 mi WSW 5.8 mph - N/A   Clear
6:53 PM 78.1 °F - 69.1 °F 74% 29.97 in 10.0 mi WSW 4.6 mph - N/A   Overcast
7:53 PM 77.0 °F - 69.1 °F 76% 29.97 in 10.0 mi SW 3.5 mph - N/A   Partly Cloudy
8:35 PM 77.0 °F - 69.8 °F 78% 29.98 in 10.0 mi West 3.5 mph - N/A   Overcast
8:53 PM 77.0 °F - 69.1 °F 76% 29.99 in 10.0 mi Calm Calm - N/A   Overcast
9:30 PM 75.2 °F - 69.8 °F 83% 29.99 in 10.0 mi NNW 3.5 mph - N/A   Mostly Cloudy
9:53 PM 75.9 °F - 69.1 °F 79% 29.99 in 10.0 mi Calm Calm - N/A   Mostly Cloudy
10:20 PM 75.2 °F - 68.0 °F 78% 29.99 in 10.0 mi NE 3.5 mph - N/A   Overcast
10:53 PM 75.0 °F - 68.0 °F 79% 29.99 in 10.0 mi ENE 3.5 mph - N/A   Scattered Clouds
11:21 PM 75.2 °F - 66.2 °F 73% 29.98 in 10.0 mi ENE 3.5 mph - N/A   Mostly Cloudy
11:30 PM 75.2 °F - 66.2 °F 73% 29.98 in 10.0 mi East 4.6 mph - N/A   Partly Cloudy
11:53 PM 73.9 °F - 66.9 °F 79% 29.97 in 10.0 mi East 4.6 mph - N/A   Clear